RH
33 32 31 31 32 33 40 46 41 44 38 36 38 45 51 48 48 49 50 46 46 43 43 38 36 33 30 29 29 31 33 36 38 41 44 50 47 43 46 47 48 48 47
33 35 27 32 34 32 37 41 43 43 39 36 37 38 41 45 47 48 48 44 40 38 36 34 33 33 35 37 37 36 35 34 34 37 39 43 43 41 45 46 48 47 46
32 33 28 32 32 35 34 42 43 37 39 34 36 39 42 44 44 45 45 45 44 42 41 40 41 42 43 44 43 42 41 38 34 35 36 39 42 43 43 45 46 48 49
28 25 26 35 40 34 31 39 41 36 37 32 31 33 35 37 40 43 41 43 45 45 45 46 47 47 46 45 44 41 38 38 37 40 41 40 41 44 44 44 47 49 51
26 21 26 26 28 26 28 32 36 33 35 37 30 29 29 30 32 35 37 39 39 42 45 46 47 46 44 43 42 42 38 29 29 33 35 37 39 43 42 44 44 44 44
25 21 21 21 22 25 26 28 30 40 32 38 31 30 30 31 29 28 34 38 36 36 37 40 42 42 41 41 36 31 27 24 24 27 28 32 36 44 43 38 38 40 41
21 21 20 21 22 24 24 26 27 34 39 33 31 31 32 32 29 27 26 31 35 36 36 36 36 36 34 32 31 28 25 22 23 26 27 26 25 29 35 42 47 46 43
19 19 20 21 26 31 24 27 27 32 29 30 30 26 25 27 28 27 26 25 30 32 33 32 32 32 31 31 28 26 25 22 23 26 27 28 28 27 28 28 27 28 28
21 19 21 21 24 25 28 28 28 26 25 25 25 27 25 25 27 27 27 25 26 29 31 31 31 30 31 29 27 26 25 23 25 28 29 31 38 34 34 34 34 35 35
24 20 19 20 22 21 23 24 24 25 25 22 22 25 26 23 23 24 25 26 26 27 31 32 31 31 31 29 28 27 26 25 24 29 31 38 47 39 34 34 34 34 33
25 22 19 20 21 21 21 20 22 22 22 21 21 21 21 21 22 23 24 25 27 30 34 35 35 34 32 30 30 29 29 28 27 28 32 35 39 39 35 33 32 32 32
22 20 19 19 21 20 19 20 20 20 21 21 21 20 20 21 23 24 24 25 27 32 34 35 34 33 32 31 31 29 29 28 28 28 28 29 32 34 33 33 31 29 28
20 19 16 18 21 20 19 19 20 19 20 20 21 20 21 22 21 24 25 26 26 27 30 32 33 33 32 31 30 28 28 27 28 27 26 26 26 26 26 26 24 23 23
19 18 17 18 19 19 19 19 19 20 20 20 20 20 22 24 25 26 26 26 27 27 27 29 30 30 30 29 27 26 26 25 25 25 24 25 25 24 23 22 22 21 21
19 20 18 17 18 18 18 18 19 20 21 22 21 22 24 25 26 27 26 26 26 26 25 25 25 25 25 25 25 25 25 24 24 23 22 22 23 23 24 24 24 24 24
20 21 20 17 18 19 19 20 21 22 22 22 23 24 25 27 28 29 28 27 26 26 26 25 25 24 23 22 22 22 23 23 22 22 23 24 24 25 26 26 27 27 28
22 22 21 20 19 20 21 22 22 22 22 24 26 27 28 28 28 29 30 30 28 27 26 25 24 23 23 22 22 23 23 24 24 24 25 26 27 28 29 30 30 30 31
25 24 24 23 22 22 23 23 24 24 25 26 29 30 30 30 30 29 29 29 29 28 27 26 24 23 23 23 23 23 24 25 25 26 27 28 29 30 31 31 32 33 34
25 25 26 27 26 26 28 28 28 28 28 30 32 32 32 32 31 30 29 28 28 28 27 26 25 24 24 24 24 24 25 25 26 27 28 29 30 31 32 33 34 34 34
24 25 27 29 31 32 33 34 34 33 33 34 35 35 35 35 35 33 31 29 28 28 28 27 26 26 26 25 24 24 25 25 25 27 29 30 31 32 33 34 34 34 34
22 25 26 28 32 33 34 36 37 39 38 38 39 39 38 37 36 34 32 31 31 30 29 29 28 27 26 26 26 24 24 25 26 27 30 32 33 34 35 35 36 36 36
21 22 25 28 32 35 38 42 44 44 43 43 44 43 42 40 39 38 37 37 35 33 32 32 31 29 28 27 26 25 24 25 26 28 31 33 35 36 36 35 36 36 37
25 25 26 29 34 39 43 46 48 49 49 48 47 46 45 44 44 44 42 42 41 39 36 35 34 33 31 30 29 28 26 26 27 29 33 36 37 38 36 37 40 40 40
24 25 27 32 37 42 46 50 51 53 54 52 51 51 49 47 47 46 46 44 44 42 41 40 38 37 34 33 31 31 30 29 29 31 34 37 39 38 38 41 45 45 45
23 24 26 32 37 41 45 49 53 55 57 57 56 54 53 47 48 48 45 43 44 44 44 42 40 38 36 34 33 33 34 34 34 35 37 40 42 42 42 45 50 50 53
30 30 30 33 37 42 46 50 53 55 56 57 55 53 50 47 46 47 42 42 42 41 40 39 38 38 39 37 37 38 39 40 40 41 41 43 44 45 46 47 53 57 61